Change the Weather History Date:

Monday, July 28, 2014

  Actual Average Record
Temperature  
Mean Temperature 75 °F -  
Max Temperature 93 °F 90 °F 99 °F (2006)
Min Temperature 59 °F 55 °F 46 °F (1963)
Cooling Degree Days 10    
Growing Degree Days 25 (Base 50)    
Moisture  
Dew Point 51 °F    
Average Humidity 48    
Maximum Humidity 78    
Minimum Humidity 22    
Precipitation  
Precipitation 0.02 in - - ()
Sea Level Pressure  
Sea Level Pressure 30.06 in    
Wind  
Wind Speed 6 mph (NW)    
Max Wind Speed 22 mph    
Max Gust Speed 31 mph    
Visibility 10 miles    
Events Rain , Thunderstorm    
Averages and records for this station are not official NWS values.
T = Trace of Precipitation, MM = Missing Value Source: NWS Daily Summary

Daily Weather History Graph

Daily Weather History Graph

Search for Another Location

Airport or City:

Trip Planner

Search our weather history database for the weather conditions in past years. The results will help you decide how hot, cold, wet, or windy it might be!

Date:

Astronomy

Jul. 28, 2014 Rise Set
Actual Time 6:17 AM MDT 8:49 PM MDT
Civil Twilight 5:45 AM MDT 9:21 PM MDT
Nautical Twilight 5:06 AM MDT 10:00 PM MDT
Astronomical Twilight 4:21 AM MDT 10:45 PM MDT
Moon 8:04 AM MDT (7/28) 9:30 PM MDT (7/28)
Length of Visible Light 15h 35m
Length of Day
14h 32m
Waxing Crescent, 3% of the Moon is Illuminated
Jul 28
Waxing Crescent
Aug 3
First Quarter
Aug 10
Full
Aug 17
Last Quarter
Aug 25
New

Hourly Weather History & Observations

Time (MDT) Temp. Dew Point Humidity Pressure Visibility Wind Dir Wind Speed Gust Speed Precip Events Conditions
12:51 AM 64.0 °F 46.9 °F 54% 29.98 in 10.0 mi Variable 3.5 mph - N/A   Clear
1:51 AM 69.1 °F 46.9 °F 45% 29.96 in 10.0 mi Variable 3.5 mph - N/A   Clear
2:51 AM 64.0 °F 46.9 °F 54% 29.98 in 10.0 mi Calm Calm - N/A   Clear
3:51 AM 63.0 °F 45.0 °F 52% 29.98 in 10.0 mi Calm Calm - N/A   Clear
4:51 AM 59.0 °F 52.0 °F 78% 30.00 in 10.0 mi Calm Calm - N/A   Clear
5:51 AM 64.0 °F 46.0 °F 52% 29.99 in 10.0 mi Calm Calm - N/A   Clear
6:51 AM 59.0 °F 50.0 °F 72% 30.02 in 10.0 mi Calm Calm - N/A   Clear
7:51 AM 62.1 °F 51.1 °F 67% 30.04 in 10.0 mi North 4.6 mph - N/A   Partly Cloudy
8:51 AM 66.0 °F 48.9 °F 54% 30.07 in 10.0 mi WNW 5.8 mph - N/A   Clear
9:51 AM 75.0 °F 46.9 °F 37% 30.05 in 10.0 mi NNW 5.8 mph - N/A   Clear
10:51 AM 79.0 °F 50.0 °F 36% 30.06 in 10.0 mi NNW 6.9 mph - N/A   Clear
11:51 AM 82.9 °F 46.0 °F 27% 30.05 in 10.0 mi North 8.1 mph - N/A   Clear
12:51 PM 89.1 °F 48.0 °F 24% 30.03 in 10.0 mi North 6.9 mph - N/A   Clear
1:51 PM 91.0 °F 48.9 °F 23% 29.99 in 10.0 mi North - - N/A   Clear
2:51 PM 91.9 °F 48.9 °F 23% 29.98 in 10.0 mi NW 9.2 mph - N/A   Clear
3:51 PM 90.0 °F 46.9 °F 23% 29.97 in 10.0 mi NNW 4.6 mph - N/A Thunderstorm Clear
4:08 PM 91.0 °F 46.9 °F 22% 30.14 in 10.0 mi Calm Calm - N/A   Mostly Cloudy
4:51 PM 89.1 °F 50.0 °F 26% 29.98 in 10.0 mi South 6.9 mph - N/A   Overcast
5:21 PM 79.0 °F 55.0 °F 44% 30.15 in 10.0 mi East 19.6 mph - 0.00 in Rain Light Rain
5:51 PM 79.0 °F 52.0 °F 39% 30.03 in 10.0 mi South 21.9 mph - 0.00 in   Overcast
5:58 PM 78.1 °F 55.0 °F 45% 30.19 in 7.0 mi SSE 19.6 mph 31.1 mph 0.01 in Rain Light Rain
6:06 PM 79.0 °F 55.0 °F 44% 30.19 in 7.0 mi SSE 17.3 mph 28.8 mph 0.01 in Rain , Thunderstorm Light Rain
6:36 PM 78.1 °F 55.0 °F 45% 30.20 in 10.0 mi South 19.6 mph 26.5 mph 0.01 in   Scattered Clouds
6:51 PM 75.9 °F 55.9 °F 50% 30.06 in 10.0 mi South 19.6 mph - 0.01 in   Scattered Clouds
7:51 PM 70.0 °F 57.9 °F 65% 30.07 in 10.0 mi SSW 9.2 mph - N/A   Overcast
8:51 PM 71.1 °F 57.9 °F 63% 30.10 in 10.0 mi North 5.8 mph - N/A   Overcast
9:51 PM 68.0 °F 57.9 °F 70% 30.12 in 10.0 mi WNW 9.2 mph - 0.01 in   Overcast
10:51 PM 66.9 °F 57.9 °F 73% 30.12 in 10.0 mi North 6.9 mph - N/A   Scattered Clouds
11:51 PM 66.9 °F 59.0 °F 76% 30.10 in 10.0 mi NE 3.5 mph - N/A   Clear